Flag for U.S.A. Weather past 2 weeks in Walnut Creek, California, U.S.A.

Now
69 °F

Sunny.


Feels Like: 69 °F
Forecast: 60 / 79 °F
Wind: 6 mph from Southwest

Location: Buchanan Field

Current Time: Sep 23, 2014 at 10:24:21 AM

Latest Report: Sep 23, 2014 at 9:53 AM


Visibility: 10 mi

Pressure: 29.96 "Hg

Humidity: 66%

Dew point: 57 °F

Location of Walnut CreekLocation

Historic Weather in Walnut Creek — Graph

°F

Walnut Creek temperature yesterday

Maximum temperature yesterday: 85 °F (at 1:53 PM)
Minimum temperature yesterday: 62 °F (at 2:53 AM)
Average temperature yesterday: 70 °F

Past Weeks' High & Low Weather Summary

 TemperatureHumidityPressure
High97 °F (Sep 11, 4:53 PM)93% (Sep 10, 1:53 AM)30.01 "Hg (Sep 10, 1:53 AM)
Low54 °F (Sep 10, 6:53 AM)11% (Sep 10, 4:53 PM)29.69 "Hg (Sep 17, 4:53 PM)
Average71 °F61%29.83 "Hg
* Reported Sep 8 8:53 AM — Sep 23 8:53 AM, Walnut Creek, Weather by CustomWeather, © 2014

Note: Actual official high and low records may vary slightly from our data, if they occured in-between our weather recording intervals... More about our weather records

Advertising

Walnut Creek weather history for previous 24 hours

 ConditionsComfort  
Time TempWeatherWind HumidityBarometerVisibility
8:53 AM
Sep 23
66 °FSunny.9 mph73%29.96 "Hg10 mi
7:53 AM62 °FClear.8 mph83%29.95 "Hg10 mi
6:53 AM61 °FClear.8 mph83%29.93 "Hg10 mi
5:53 AM60 °FClear.7 mph86%29.93 "Hg10 mi
4:53 AM60 °FClear.8 mph86%29.91 "Hg10 mi
3:53 AM60 °FClear.8 mph83%29.92 "Hg10 mi
2:53 AM61 °FClear.7 mph81%29.92 "Hg10 mi
1:53 AM62 °FClear.3 mph75%29.93 "Hg10 mi
12:53 AM63 °FClear.6 mph75%29.93 "Hg10 mi
11:53 PM
Sep 22
64 °FClear.3 mph75%29.92 "Hg10 mi
10:53 PM64 °FClear.6 mph78%29.93 "Hg10 mi
9:53 PM66 °FClear.9 mph70%29.91 "Hg10 mi
8:53 PM67 °FClear.8 mph71%29.91 "Hg10 mi
7:53 PM71 °FSunny.8 mph59%29.90 "Hg10 mi
6:53 PM75 °FSunny.10 mph52%29.90 "Hg10 mi
5:53 PM79 °FSunny.10 mph45%29.88 "Hg10 mi
4:53 PM79 °FSunny.12 mph45%29.89 "Hg10 mi
3:53 PM84 °FSunny.12 mph36%29.89 "Hg10 mi
2:53 PM84 °FSunny.16 mph37%29.90 "Hg10 mi
1:53 PM85 °FSunny.8 mph36%29.92 "Hg10 mi
12:53 PM80 °FSunny.8 mph44%29.95 "Hg10 mi
12:00 PM77 °FSunny.13 mph48%30.01 "Hg10 mi
10:53 AM72 °FSunny.No wind57%29.98 "Hg10 mi
Weather by CustomWeather, © 2014

See weather overviewHow to use our weather pages